Regional Weather Roundup
Issued by NWS

Home | Current Version | Previous Version | Text Only | Print | Product List | Glossary Off
Versions: 1 2 3 4 5 6 7 8 9 10 11 12 13 14 15 16 17 18 19 20 21 22 23 24 25 26 27 28 29 30 31 32 33 34 35 36 37 38 39 40 41 42 43 44 45 46 47 48 49 50

000
ASUS43 KIND 291959
RWRIN

WEATHER ROUNDUP FOR INDIANA
NATIONAL WEATHER SERVICE INDIANAPOLIS IN
400 PM EDT FRI MAY 29 2015

NOTE: "FAIR" INDICATES FEW OR NO CLOUDS BELOW 12,000 FEET WITH NO
SIGNIFICANT WEATHER AND/OR OBSTRUCTIONS TO VISIBILITY.

* - STATION DOES NOT REPORT WEATHER SUCH AS PRECIPITATION OR FOG.

+ - STATION NOT QUALITY CONTROLLED BY THE NATIONAL WEATHER SERVICE.
    USE DATA WITH CAUTION...ESPECIALLY DEWPOINT AND RELATIVE
    HUMIDITY OBSERVATIONS.

INZ001>003-010>013-019-020-292100-
NORTHWEST INDIANA

CITY           SKY/WX    TMP DP  RH WIND       PRES   REMARKS
GARY /AIRPORT/ PTSUNNY   84  63  48 S14G25    29.96F
RENSSELAER +   MOSUNNY   86  63  45 S17G25    29.99F

$$

LMZ046-743>745-292100-
SOUTHERN LAKE MICHIGAN

STATION/POSITION TIME  TEMP    WIND        PRES    WAVE
                       AIR SEA DIR/SP/G            HT
                 (UTC) (F)     (DEG/KT/KT) (MB)    (FT)
BURNS HARBOR     1900   80     180/ 14/ 20 1015.6F
MICHIGAN CITY    1900   71      30/  2/  4   N/A
5NW MICH CITY    1900   62 57   60/  6/  8   N/A     1

$$

INZ004-005-014>016-021>024-292100-
NORTH CENTRAL INDIANA

CITY           SKY/WX    TMP DP  RH WIND       PRES   REMARKS
ELKHART        CLOUDY    82  63  51 SW13      30.00F
GOSHEN         MOSUNNY   83  63  50 S14G22    30.00F
SOUTH BEND     PTSUNNY   84  63  49 SW17G24   29.99F

$$

INZ006>009-017-018-025>027-292100-
NORTHEAST INDIANA

CITY           SKY/WX    TMP DP  RH WIND       PRES   REMARKS
ANGOLA *+      MOSUNNY   86  81  84 SW9       30.03F HX 102
FORT WAYNE     PTSUNNY   83  63  50 SW13      30.04F

$$

INZ028-029-035-036-043>045-051>053-292100-
WEST CENTRAL INDIANA

CITY           SKY/WX    TMP DP  RH WIND       PRES   REMARKS
CRAWFORDSVL +  PTSUNNY   80  58  46 S15       30.03F
GREENCASTLE +  MOSUNNY   81  63  54 S12G17    30.06F
LAFAYETTE      MOSUNNY   81  63  54 SW8       30.00F
TERRE HAUTE    MOSUNNY   83  67  58 S16       30.03F

$$

INZ030>032-037>040-046>048-054>057-064-065-292100-
CENTRAL INDIANA

CITY           SKY/WX    TMP DP  RH WIND       PRES   REMARKS
ANDERSON       PTSUNNY   82  63  51 SW12      30.07F
COLUMBUS       PTSUNNY   82  63  51 S14G21    30.07F
GREENWOOD *+   MOSUNNY   84  59  42 SW10G21   30.07F
INDIANAPOLIS   MOSUNNY   84  64  50 S16       30.04F
-EAGLE CREEK   PTSUNNY   82  65  56 S9G21     30.04F
KOKOMO *+      PTSUNNY   82  68  61 S6        30.03F
MT COMFORT *+  SUNNY     84  52  32 S16       30.06F
SHELBYVILLE    PTSUNNY   83  65  54 S13G23    30.05F

$$

INZ033-034-041-042-049-050-058-059-292100-
EAST CENTRAL INDIANA

CITY           SKY/WX    TMP DP  RH WIND       PRES   REMARKS
MUNCIE         MOSUNNY   80  69  69 SW7       30.05F

$$

INZ060-061-067>069-081>083-085>088-292100-
SOUTHWEST INDIANA

CITY           SKY/WX    TMP DP  RH WIND       PRES   REMARKS
EVANSVILLE     PTSUNNY   82  68  62 S9        30.05F
HUNTINGBURG *+ PTSUNNY   79  66  65 S13       30.07F

$$

INZ062-063-066-070>080-084-089>092-292100-
SOUTH CENTRAL AND SOUTHEAST INDIANA

CITY           SKY/WX    TMP DP  RH WIND       PRES   REMARKS
BLOOMINGTON    MOSUNNY   81  64  56 S13       30.07F
MADISON *+     PTSUNNY   82  61  47 S8        30.11F
SEYMOUR +      PTSUNNY   84  63  48 S12G18    30.07F

$$




USA.gov is the U.S. government's official web portal to all federal, state and local government web resources and services.